Location: Newark
(45.2500°N, 7.5833°E)
Time: 05:45:44
(UTC+00:00)

Vanguard 3 - Pass Details

Date: 03 February 2020
Orbit: 508 x 3263 km, 33.3° (Epoch: 27 February)

Event Time Altitude Azimuth Distance (km) Brightness Sun altitude
Rises 13:28:22 0° 219° (SW) 5,542 12.8 23.7°
Reaches altitude 10° 13:31:54 10° 211° (SSW) 4,880 13.2 23.5°
Maximum altitude 13:45:25 40° 149° (SSE) 3,909 11.2 22.3°
Drops below altitude 10° 14:02:40 10° 90° (E) 6,194 11.4 20.6°
Sets 14:07:50 0° 84° (E) 7,130 11.6 20.0°
